Weather History for Hebron, NE

Change the Weather History Date:

Friday, March 7, 2014

  Actual Average Record
Temperature  
Mean Temperature 36 °F -  
Max Temperature 45 °F 50 °F 84 °F (1972)
Min Temperature 27 °F 25 °F 1 °F (1989)
Degree Days  
Heating Degree Days 28    
Moisture  
Dew Point 30 °F    
Average Humidity 76    
Maximum Humidity 90    
Minimum Humidity 62    
Precipitation  
Precipitation 0.00 in - - ()
Sea Level Pressure  
Sea Level Pressure 29.92 in    
Wind  
Wind Speed 11 mph (North)    
Max Wind Speed 24 mph    
Max Gust Speed 31 mph    
Visibility 8 miles    
Events      
Averages and records for this station are not official NWS values.
T = Trace of Precipitation, MM = Missing Value Source: NWS Daily Summary

Daily Weather History Graph

Daily Weather History Graph

Search for Another Location

Airport:

Trip Planner

Search our weather history database for the weather conditions in past years. The results will help you decide how hot, cold, wet, or windy it might be!

Date:

Astronomy

Mar. 07, 2014 Rise Set
Actual Time 6:54 AM CST 6:28 PM CST
Civil Twilight 6:27 AM CST 6:55 PM CST
Nautical Twilight 5:56 AM CST 7:27 PM CST
Astronomical Twilight 5:24 AM CST 7:58 PM CST
Moon 10:48 AM CST (3/7) 12:35 AM CST (3/7)
Length of Visible Light 12h 28m
Length of Day
11h 34m
Waxing Crescent, 42% of the Moon is Illuminated
Mar 7
Waxing Crescent
Mar 8
First Quarter
Mar 16
Full
Mar 23
Last Quarter
Mar 30
New

Hourly Weather History & Observations

Time (CST) Temp. Windchill Dew Point Humidity Pressure Visibility Wind Dir Wind Speed Gust Speed Precip Events Conditions
12:15 AM 37.4 °F 29.8 °F 33.4 °F 86% 29.80 in 7.0 mi SSW 11.5 mph 18.4 mph N/A   Clear
12:35 AM 37.4 °F 29.3 °F 33.6 °F 86% 29.79 in 7.0 mi South 12.7 mph - N/A   Clear
12:55 AM 37.2 °F 30.0 °F 33.4 °F 86% 29.79 in 7.0 mi SSW 10.4 mph - N/A   Clear
1:15 AM 37.0 °F 29.3 °F 33.8 °F 88% 29.78 in 7.0 mi South 11.5 mph 17.3 mph N/A   Clear
1:35 AM 37.0 °F 31.0 °F 33.8 °F 88% 29.79 in 5.0 mi SSW 8.1 mph - N/A   Clear
1:55 AM 36.9 °F 30.1 °F 33.8 °F 89% 29.79 in 5.0 mi SSW 9.2 mph - N/A   Clear
2:15 AM 36.9 °F 31.4 °F 33.8 °F 89% 29.78 in 5.0 mi South 6.9 mph - N/A   Clear
2:35 AM 36.7 °F 32.9 °F 33.8 °F 89% 29.77 in 5.0 mi SSW 4.6 mph - N/A   Clear
2:55 AM 36.5 °F 33.9 °F 33.8 °F 90% 29.77 in 5.0 mi South 3.5 mph - N/A   Clear
3:15 AM 36.3 °F 31.6 °F 33.6 °F 90% 29.77 in 5.0 mi SSW 5.8 mph - N/A   Clear
3:35 AM 36.7 °F 32.0 °F 34.0 °F 90% 29.76 in 5.0 mi South 5.8 mph - N/A   Clear
3:55 AM 37.4 °F 32.1 °F 34.5 °F 89% 29.77 in 7.0 mi South 6.9 mph - N/A   Scattered Clouds
4:15 AM 38.3 °F 32.5 °F 34.7 °F 87% 29.77 in 7.0 mi SSW 8.1 mph - N/A   Overcast
4:35 AM 37.9 °F 32.7 °F 34.5 °F 87% 29.78 in 7.0 mi SSW 6.9 mph - N/A   Overcast
4:55 AM 37.6 °F 32.3 °F 34.0 °F 87% 29.77 in 7.0 mi SSW 6.9 mph - N/A   Overcast
5:15 AM 37.6 °F 32.3 °F 34.0 °F 87% 29.79 in 7.0 mi SSW 6.9 mph - N/A   Overcast
5:35 AM 37.4 °F 33.8 °F 34.0 °F 87% 29.78 in 7.0 mi SSW 4.6 mph - N/A   Scattered Clouds
5:55 AM 37.8 °F 33.3 °F 34.2 °F 87% 29.78 in 7.0 mi South 5.8 mph - N/A   Clear
6:15 AM 37.6 °F 35.1 °F 34.0 °F 87% 29.78 in 7.0 mi SSW 3.5 mph - N/A   Clear
6:35 AM 37.8 °F - 34.0 °F 86% 29.78 in 7.0 mi Calm Calm - N/A   Clear
6:55 AM 37.4 °F - 33.8 °F 87% 29.79 in 7.0 mi Calm Calm - N/A   Clear
7:15 AM 36.5 °F 33.9 °F 33.3 °F 88% 29.80 in 5.0 mi SSW 3.5 mph - N/A   Clear
7:35 AM 36.0 °F 32.1 °F 32.9 °F 89% 29.81 in 5.0 mi NW 4.6 mph - N/A   Clear
7:55 AM 36.5 °F - 33.8 °F 90% 29.81 in 4.0 mi Calm Calm - N/A   Clear
8:15 AM 37.4 °F 34.9 °F 34.3 °F 89% 29.82 in 5.0 mi NW 3.5 mph - N/A   Clear
8:35 AM 38.1 °F 35.7 °F 34.7 °F 87% 29.84 in 5.0 mi NW 3.5 mph - N/A   Clear
8:55 AM 38.8 °F - 34.7 °F 85% 29.85 in 5.0 mi Calm Calm - N/A   Clear
9:15 AM 40.1 °F 36.9 °F 35.1 °F 82% 29.86 in 7.0 mi West 4.6 mph - N/A   Clear
9:35 AM 40.8 °F 38.8 °F 35.1 °F 80% 29.86 in 7.0 mi WNW 3.5 mph - N/A   Scattered Clouds
9:55 AM 41.9 °F 38.2 °F 35.6 °F 78% 29.86 in 10.0 mi NNW 5.8 mph - N/A   Overcast
10:15 AM 42.4 °F 35.3 °F 35.4 °F 76% 29.85 in 7.0 mi North 13.8 mph - N/A   Overcast
10:35 AM 43.9 °F 36.8 °F 35.8 °F 73% 29.86 in 10.0 mi NNE 15.0 mph 19.6 mph N/A   Overcast
10:55 AM 44.2 °F 35.7 °F 34.9 °F 70% 29.85 in 10.0 mi NNE 21.9 mph 26.5 mph N/A   Overcast
11:15 AM 43.7 °F 35.2 °F 34.3 °F 70% 29.87 in 10.0 mi NNE 20.7 mph 26.5 mph N/A   Overcast
11:35 AM 44.8 °F 36.4 °F 34.3 °F 67% 29.87 in 10.0 mi NNE 21.9 mph 28.8 mph N/A   Overcast
11:55 AM 45.0 °F 37.4 °F 33.8 °F 65% 29.87 in 10.0 mi North 18.4 mph 26.5 mph N/A   Overcast
12:15 PM 43.5 °F 35.8 °F 33.3 °F 67% 29.88 in 7.0 mi NNE 17.3 mph 27.6 mph N/A   Overcast
12:35 PM 41.7 °F 32.6 °F 32.4 °F 69% 29.89 in 7.0 mi NNE 20.7 mph 28.8 mph N/A   Overcast
12:55 PM 41.0 °F 31.6 °F 32.0 °F 70% 29.89 in 7.0 mi NNE 20.7 mph 31.1 mph N/A   Overcast
1:15 PM 40.8 °F 32.0 °F 32.0 °F 71% 29.89 in 7.0 mi NNE 18.4 mph 27.6 mph N/A   Overcast
1:35 PM 41.0 °F 31.4 °F 32.0 °F 70% 29.89 in 7.0 mi NNE 21.9 mph 28.8 mph N/A   Overcast
1:55 PM 40.8 °F 30.7 °F 32.0 °F 71% 29.90 in 7.0 mi NNE 24.2 mph 28.8 mph N/A   Overcast
2:15 PM 40.8 °F 31.4 °F 31.6 °F 70% 29.90 in 7.0 mi NNE 20.7 mph 26.5 mph N/A   Overcast
2:35 PM 40.1 °F 30.5 °F 31.1 °F 70% 29.91 in 7.0 mi NE 20.7 mph 28.8 mph N/A   Overcast
2:55 PM 39.6 °F 29.5 °F 30.2 °F 69% 29.92 in 7.0 mi NNE 21.9 mph 25.3 mph N/A   Overcast
3:15 PM 38.7 °F 29.1 °F 29.7 °F 70% 29.92 in 7.0 mi NE 18.4 mph 27.6 mph N/A   Overcast
3:35 PM 37.4 °F 27.2 °F 28.4 °F 70% 29.95 in 7.0 mi NNE 19.6 mph 27.6 mph N/A   Overcast
3:55 PM 36.5 °F 26.7 °F 27.5 °F 70% 29.97 in 10.0 mi NNE 17.3 mph 26.5 mph N/A   Overcast
4:15 PM 36.0 °F 25.6 °F 26.6 °F 69% 29.98 in 10.0 mi NNE 18.4 mph 26.5 mph N/A   Overcast
4:35 PM 35.8 °F 26.1 °F 26.2 °F 68% 29.99 in 10.0 mi NNE 16.1 mph 23.0 mph N/A   Overcast
4:55 PM 35.2 °F 25.8 °F 25.2 °F 67% 30.00 in 10.0 mi North 15.0 mph 23.0 mph N/A   Overcast
5:15 PM 34.9 °F 24.2 °F 24.6 °F 66% 30.00 in 10.0 mi North 18.4 mph 23.0 mph N/A   Overcast
5:35 PM 35.1 °F 23.5 °F 24.1 °F 64% 30.01 in 10.0 mi NNE 21.9 mph 25.3 mph N/A   Overcast
5:55 PM 33.8 °F 23.5 °F 23.0 °F 65% 30.03 in 10.0 mi North 16.1 mph 28.8 mph N/A   Overcast
6:15 PM 32.7 °F 21.4 °F 22.6 °F 66% 30.05 in 10.0 mi North 18.4 mph 24.2 mph N/A   Overcast
6:35 PM 32.0 °F 21.6 °F 22.1 °F 67% 30.06 in 10.0 mi North 15.0 mph 24.2 mph N/A   Overcast
6:55 PM 32.0 °F 19.2 °F 21.9 °F 66% 30.06 in 10.0 mi North 23.0 mph 27.6 mph N/A   Overcast
7:15 PM 31.5 °F 20.1 °F 21.2 °F 66% 30.07 in 10.0 mi North 17.3 mph 27.6 mph N/A   Overcast
7:35 PM 31.1 °F 18.6 °F 21.0 °F 66% 30.07 in 10.0 mi North 20.7 mph 26.5 mph N/A   Overcast
7:55 PM 30.9 °F 19.8 °F 20.1 °F 64% 30.08 in 10.0 mi NNE 16.1 mph 28.8 mph N/A   Overcast
8:15 PM 30.9 °F 20.7 °F 19.4 °F 62% 30.10 in 10.0 mi NNE 13.8 mph 20.7 mph N/A   Overcast
8:35 PM 30.6 °F 19.8 °F 19.4 °F 63% 30.11 in 10.0 mi NNE 15.0 mph 24.2 mph N/A   Overcast
8:55 PM 30.2 °F 18.9 °F 19.4 °F 64% 30.11 in 7.0 mi North 16.1 mph 28.8 mph N/A   Overcast
9:15 PM 30.0 °F 17.9 °F 19.6 °F 65% 30.12 in 10.0 mi North 18.4 mph 24.2 mph N/A   Overcast
9:35 PM 29.7 °F 17.4 °F 20.1 °F 68% 30.13 in 10.0 mi North 18.4 mph 25.3 mph N/A   Overcast
9:55 PM 29.7 °F 17.8 °F 20.3 °F 68% 30.15 in 10.0 mi North 17.3 mph 25.3 mph N/A   Overcast
10:15 PM 29.3 °F 18.6 °F 20.7 °F 70% 30.15 in 10.0 mi North 13.8 mph 28.8 mph N/A   Overcast
10:35 PM 29.3 °F 17.7 °F 20.7 °F 70% 30.15 in 10.0 mi North 16.1 mph 21.9 mph N/A   Overcast
10:55 PM 29.1 °F 16.4 °F 20.8 °F 71% 30.16 in 10.0 mi NNE 19.6 mph 25.3 mph N/A   Overcast
11:15 PM 28.8 °F 16.2 °F 21.2 °F 73% 30.16 in 10.0 mi North 18.4 mph 24.2 mph N/A   Overcast
11:35 PM 28.2 °F 16.3 °F 22.1 °F 78% 30.17 in 10.0 mi North 16.1 mph 24.2 mph N/A   Overcast
11:55 PM 27.9 °F 15.5 °F 22.3 °F 80% 30.17 in 7.0 mi North 17.3 mph 23.0 mph N/A   Overcast